Date,TemperatureHighF,TemperatureAvgF,TemperatureLowF,DewpointHighF,DewpointAvgF,DewpointLowF,HumidityHigh,HumidityAvg,HumidityLow,PressureMaxIn,PressureMinIn,WindSpeedMaxMPH,WindSpeedAvgMPH,GustSpeedMaxMPH,PrecipitationSumIn
2013-8-1,-200,0,200,-100,-100,-100,0,0,100,29.90,29.67,916,0,916,0.00
2013-8-2,-200,0,200,-100,-100,-100,0,0,100,29.81,29.67,916,0,916,0.00
2013-8-3,-200,0,200,-100,-100,-100,0,0,100,29.82,29.77,916,0,916,0.00
2013-8-4,-200,0,200,-100,-100,-100,0,0,100,29.84,29.72,916,0,916,0.00
2013-8-5,-200,0,200,-100,-100,-100,0,0,100,29.94,29.84,916,0,916,0.00
2013-8-6,-200,0,200,-100,-100,-100,0,0,100,29.98,29.90,916,0,916,0.00
2013-8-7,-200,0,200,-100,-100,-100,0,0,100,29.99,29.79,916,0,916,0.00
2013-8-8,-200,0,200,-100,-100,-100,0,0,100,29.93,29.73,916,0,916,0.00
2013-8-9,-200,0,200,-100,-100,-100,0,0,100,29.88,29.61,916,0,916,0.00
2013-8-10,-200,0,200,-100,-100,-100,0,0,100,29.92,29.70,916,0,916,0.00
2013-8-11,-200,0,200,-100,-100,-100,0,0,100,29.97,29.81,916,0,916,0.00
2013-8-12,-200,0,200,-100,-100,-100,0,0,100,29.90,29.78,916,0,916,0.00
2013-8-13,-200,0,200,-100,-100,-100,0,0,100,29.78,29.59,916,0,916,0.00
2013-8-14,-200,0,200,-100,-100,-100,0,0,100,29.92,29.61,916,0,916,0.00
2013-8-15,-200,0,200,-100,-100,-100,0,0,100,30.03,29.77,916,0,916,0.00
2013-8-16,78,25,63,63,-42,-100,84,25,53,30.03,27.10,2,0,4,0.00
2013-8-17,79,70,60,68,63,58,92,74,58,30.02,29.69,9,2,12,0.00
2013-8-18,75,72,69,69,66,61,86,77,64,29.99,29.88,8,2,13,0.00
2013-8-19,77,72,68,70,68,65,93,83,69,29.92,29.83,5,2,8,0.00
2013-8-20,84,74,70,73,71,68,97,86,60,29.93,29.84,5,1,8,0.00
2013-8-21,88,76,70,77,73,70,99,86,63,29.97,29.86,4,1,6,0.00
2013-8-22,86,75,69,78,72,68,99,89,68,29.87,29.68,8,1,14,0.12
2013-8-23,81,75,67,73,69,62,99,77,49,29.84,29.65,7,2,11,0.05
2013-8-24,78,70,61,70,65,60,98,83,53,30.10,29.84,11,2,17,0.02
2013-8-25,79,68,57,66,61,54,99,76,33,30.17,30.05,6,1,8,0.01
2013-8-26,85,75,67,72,67,61,85,71,55,30.06,29.75,8,3,11,0.00
2013-8-27,87,78,73,75,72,68,89,77,59,29.75,29.42,7,3,12,0.00
2013-8-28,85,74,71,78,72,70,99,94,75,29.68,29.58,4,0,8,0.46
2013-8-29,78,73,68,74,70,67,99,88,68,29.79,29.59,9,3,17,0.01
2013-8-30,82,74,66,74,70,66,99,88,66,29.81,29.68,5,1,8,0.00
2013-8-31,86,77,71,77,73,69,97,86,70,29.71,29.59,7,1,11,0.00